FW7858 Weather Reports


time (UTC)temp
F
wind
direction
speed
knots
gust
knots
rain 1hr
in
rain 24hr
in
rain mn
in
humidity
%
barometer
mb
20260502220528 65 259 10.4 17.4 0.00 0.00 0.00 35 1007.9
20260502220034 65 258 12.2 16.5 0.00 0.00 0.00 34 1008.0
20260502215528 65 259 12.2 16.5 0.00 0.00 0.00 35 1007.9
20260502215027 65 248 11.3 20.0 0.00 0.00 0.00 35 1008.2
20260502214525 64 276 13.0 22.6 0.00 0.00 0.00 34 1008.4
20260502214024 64 255 14.8 23.5 0.00 0.00 0.00 35 1008.4
20260502213524 64 275 14.8 22.6 0.00 0.00 0.00 35 1008.7
20260502213024 64 279 13.0 24.3 0.00 0.00 0.00 34 1008.6
20260502212523 64 274 15.6 24.3 0.00 0.00 0.00 35 1008.5
20260502212022 64 270 7.0 18.2 0.00 0.00 0.00 35 1008.7
20260502211530 64 346 7.0 18.2 0.00 0.00 0.00 35 1009.0
20260502211020 64 264 8.7 14.8 0.00 0.00 0.00 34 1009.3
20260502210521 63 289 9.6 13.9 0.00 0.00 0.00 34 1009.2
20260502210019 63 47 3.5 20.0 0.00 0.00 0.00 35 1009.2
20260502205522 64 38 3.5 20.0 0.00 0.00 0.00 33 1009.7
20260502205019 64 294 13.0 20.9 0.00 0.00 0.00 32 1009.3
20260502204521 65 300 13.9 21.7 0.00 0.00 0.00 31 1009.4
20260502204023 65 277 12.2 21.7 0.00 0.00 0.00 33 1009.3
20260502203518 65 288 11.3 18.2 0.00 0.00 0.00 32 1009.4
20260502203021 65 290 7.8 20.9 0.00 0.00 0.00 33 1009.6
20260502202516 65 300 13.9 21.7 0.00 0.00 0.00 33 1009.5
20260502202016 65 278 16.5 23.5 0.00 0.00 0.00 33 1009.4
20260502201516 65 286 16.5 22.6 0.00 0.00 0.00 32 1009.3
20260502201016 65 290 16.5 25.2 0.00 0.00 0.00 33 1009.3
20260502200515 66 294 14.8 20.9 0.00 0.00 0.00 32 1009.4
20260502200015 66 300 11.3 19.1 0.00 0.00 0.00 32 1009.4
20260502195513 66 281 13.0 19.1 0.00 0.00 0.00 33 1009.5
20260502195013 66 289 13.0 21.7 0.00 0.00 0.00 33 1009.5
20260502194520 66 254 13.9 21.7 0.00 0.00 0.00 33 1009.5
20260502194013 66 286 13.0 20.0 0.00 0.00 0.00 34 1009.5
20260502193516 66 280 13.9 20.0 0.00 0.00 0.00 34 1009.6
20260502193012 67 304 13.0 20.0 0.00 0.00 0.00 33 1009.6
20260502192515 67 281 13.9 20.0 0.00 0.00 0.00 33 1009.7
20260502192010 66 297 11.3 17.4 0.00 0.00 0.00 33 1009.8
20260502191510 67 288 13.0 19.1 0.00 0.00 0.00 34 1009.9
20260502191009 67 275 12.2 19.1 0.00 0.00 0.00 33 1009.9
20260502190507 68 283 8.7 18.2 0.00 0.00 0.00 35 1010.0
20260502190105 67 302 9.6 18.2 0.00 0.00 0.00 36 1010.2
20260502185504 66 303 9.6 14.8 0.00 0.00 0.00 36 1010.3
20260502185003 66 263 11.3 19.1 0.00 0.00 0.00 37 1010.4
20260502184502 67 310 13.9 21.7 0.00 0.00 0.00 36 1010.4
20260502184002 67 287 15.6 21.7 0.00 0.00 0.00 36 1010.4
20260502183501 67 257 11.3 17.4 0.00 0.00 0.00 36 1010.6
20260502183108 67 317 12.2 17.4 0.00 0.00 0.00 37 1010.7
20260502182600 67 273 12.2 17.4 0.00 0.00 0.00 40 1010.7
20260502182057 66 278 10.4 18.2 0.00 0.00 0.00 39 1010.8
20260502181557 66 281 12.2 18.2 0.00 0.00 0.00 40 1011.0
20260502181054 65 297 8.7 20.0 0.00 0.00 0.00 42 1011.1
20260502180553 66 286 13.9 20.0 0.00 0.00 0.00 40 1011.2
20260502164029 60 260 10.4 15.6 0.00 0.00 0.00 45 1012.9
20260502163528 60 286 10.4 15.6 0.00 0.00 0.00 45 1012.9
20260502163039 60 282 10.4 15.6 0.00 0.00 0.00 46 1013.1
20260502162527 59 267 11.3 15.6 0.00 0.00 0.00 48 1013.1
20260502162023 59 258 11.3 19.1 0.00 0.00 0.00 50 1013.2
20260502161534 59 269 11.3 19.1 0.00 0.00 0.00 49 1013.3
20260502161021 58 300 7.8 13.9 0.00 0.00 0.00 50 1013.4
20260502160521 58 261 8.7 14.8 0.00 0.00 0.00 49 1013.6
20260502152008 55 271 9.6 15.6 0.00 0.00 0.00 54 1014.2
20260502151505 54 277 9.6 13.0 0.00 0.00 0.00 56 1014.3
20260502151003 54 271 9.6 13.0 0.00 0.00 0.00 57 1014.4
20260502150502 54 249 9.6 13.0 0.00 0.00 0.00 57 1014.4
20260502130532 42 360 5.2 8.7 0.00 0.00 0.00 74 1015.6
20260502123523 37 360 1.7 3.5 0.00 0.00 0.00 82 1016.0
20260502123031 37 360 1.7 4.3 0.00 0.00 0.00 80 1016.2
20260502122520 37 360 1.7 4.3 0.00 0.00 0.00 80 1016.2
20260502122020 36 360 1.7 4.3 0.00 0.00 0.00 80 1016.2
20260502121524 36 360 2.6 4.3 0.00 0.00 0.00 80 1016.3
20260502121018 35 360 1.7 4.3 0.00 0.00 0.00 82 1016.2
20260502120521 34 360 1.7 3.5 0.00 0.00 0.00 83 1016.1
20260502115519 33 360 0.9 2.6 0.00 0.00 0.00 84 1016.1
20260502115017 33 360 0.9 2.6 0.00 0.00 0.00 86 1016.2
20260502114517 32 360 0.0 1.7 0.00 0.00 0.00 87 1016.2
20260502114017 31 360 0.0 0.0 0.00 0.00 0.00 87 1016.2
20260502113518 31 360 0.0 0.0 0.00 0.00 0.00 87 1016.2
20260502113016 31 360 0.0 0.0 0.00 0.00 0.00 86 1016.3
20260502112514 31 360 0.0 0.0 0.00 0.00 0.00 86 1016.3
20260502112013 31 360 0.0 0.0 0.00 0.00 0.00 85 1016.5
20260502111513 32 360 0.0 0.0 0.00 0.00 0.00 85 1016.5
20260502111012 32 360 0.0 0.0 0.00 0.00 0.00 85 1016.4
20260502110512 32 360 0.0 0.0 0.00 0.00 0.00 86 1016.5
20260502110015 32 360 0.0 0.9 0.00 0.00 0.00 86 1016.6
20260502105514 32 360 0.0 1.7 0.00 0.00 0.00 86 1016.6
20260502105010 32 360 0.0 1.7 0.00 0.00 0.00 85 1016.6
20260502104515 32 360 0.0 0.0 0.00 0.00 0.00 84 1016.7
20260502104009 32 360 0.0 0.0 0.00 0.00 0.00 85 1016.7
20260502103512 32 360 0.0 0.0 0.00 0.00 0.00 86 1016.7
20260502103008 32 360 0.0 0.0 0.00 0.00 0.00 86 1016.9
20260502102507 32 360 0.0 0.0 0.00 0.00 0.00 87 1016.9
20260502102007 32 360 0.0 0.0 0.00 0.00 0.00 88 1016.9
20260502101510 32 360 0.0 0.0 0.00 0.00 0.00 88 1016.9
20260502101005 32 360 0.0 0.0 0.00 0.00 0.00 88 1017.1
20260502100505 32 360 0.0 0.0 0.00 0.00 0.00 89 1017.1
20260502091059 31 360 0.0 0.0 0.00 0.00 0.00 89 1017.3
20260502090558 31 360 0.0 0.0 0.00 0.00 0.00 90 1017.4
20260502090105 31 360 0.0 0.0 0.00 0.00 0.00 90 1017.4
20260502080109 30 360 0.0 0.0 0.00 0.00 0.00 91 1017.8
20260502071045 31 360 0.0 0.0 0.00 0.00 0.00 87 1018.1
20260502070543 31 360 0.0 0.0 0.00 0.00 0.00 86 1018.0
20260502070055 32 360 0.0 0.0 0.00 0.00 0.00 86 1018.1
20260502065541 32 360 0.0 0.0 0.00 0.00 0.00 85 1018.2
20260502065039 32 360 0.0 0.0 0.00 0.00 0.00 85 1018.2
20260502064547 33 360 0.0 0.0 0.00 0.00 0.00 84 1018.2
20260502064037 33 360 0.0 0.0 0.00 0.00 0.00 83 1018.2
20260502063536 34 360 0.0 0.0 0.00 0.00 0.00 83 1018.3
20260502063037 34 360 0.0 0.0 0.00 0.00 0.00 84 1018.4
20260502062535 34 360 0.0 0.0 0.00 0.00 0.00 83 1018.3
20260502062036 35 360 0.0 0.0 0.00 0.00 0.00 82 1018.3
20260502061535 35 360 0.0 1.7 0.00 0.00 0.00 84 1018.4
20260502061034 35 360 0.9 1.7 0.00 0.00 0.00 85 1018.3
20260502060533 35 360 0.9 1.7 0.00 0.00 0.00 87 1018.4
20260502060033 34 360 0.0 1.7 0.00 0.00 0.00 87 1018.3
20260502055530 33 360 0.0 1.7 0.00 0.00 0.00 85 1018.4
20260502055030 33 360 0.0 0.0 0.00 0.00 0.00 86 1018.5
20260502054534 33 360 0.0 0.0 0.00 0.00 0.00 86 1018.5
20260502054028 34 360 0.0 1.7 0.00 0.00 0.00 86 1018.5
20260502053529 34 360 0.0 1.7 0.00 0.00 0.00 87 1018.5
20260502053027 34 360 0.0 0.0 0.00 0.00 0.00 88 1018.5
20260502052526 34 360 0.0 0.0 0.00 0.00 0.00 89 1018.5
20260502052025 33 360 0.0 0.0 0.00 0.00 0.00 88 1018.5
20260502051529 33 360 0.0 0.0 0.00 0.00 0.00 87 1018.4
20260502051021 33 360 0.0 0.0 0.00 0.00 0.00 84 1018.4
20260502050521 33 360 0.0 0.0 0.00 0.00 0.00 84 1018.5
20260502050024 33 360 0.0 0.0 0.00 0.00 0.00 82 1018.5
20260502045523 34 360 0.0 1.7 0.00 0.00 0.00 81 1018.5
20260502045020 35 360 0.0 1.7 0.00 0.00 0.00 80 1018.5
20260502044519 35 360 0.0 0.0 0.00 0.00 0.00 82 1018.5
20260502044018 35 360 0.0 0.0 0.00 0.00 0.00 81 1018.5
20260502043518 34 360 0.0 0.0 0.00 0.00 0.00 80 1018.6
20260502043018 34 360 0.0 0.0 0.00 0.00 0.00 79 1018.5
20260502042518 35 360 0.0 0.0 0.00 0.00 0.00 78 1018.6
20260502042020 36 360 0.0 1.7 0.00 0.00 0.00 78 1018.6
20260502041521 37 360 0.0 1.7 0.00 0.00 0.00 75 1018.7
20260502041017 38 360 0.0 0.9 0.00 0.00 0.00 74 1018.7
20260502040520 39 360 0.0 0.0 0.00 0.00 0.00 71 1018.7
20260502040017 39 360 0.0 0.0 0.00 0.00 0.00 71 1018.7
20260502035517 39 360 0.0 1.7 0.00 0.00 0.00 69 1018.7
20260502035017 39 360 0.0 1.7 0.00 0.00 0.00 69 1018.7
20260502034517 40 360 0.9 1.7 0.00 0.00 0.00 69 1018.8
20260502034016 40 360 0.9 1.7 0.00 0.00 0.00 70 1018.8
20260502033519 40 360 0.9 1.7 0.00 0.00 0.00 72 1018.8
20260502033017 40 360 0.9 1.7 0.00 0.00 0.00 74 1018.9
20260502032515 40 360 0.0 0.9 0.00 0.00 0.00 77 1018.8
20260502032015 40 360 0.0 0.9 0.00 0.00 0.00 72 1018.9
20260502031515 40 360 0.0 0.0 0.00 0.00 0.00 61 1018.9
20260502031018 39 360 0.0 0.0 0.00 0.00 0.00 62 1018.9
20260502030515 40 360 0.0 1.7 0.00 0.00 0.00 67 1018.8
20260502030015 41 360 0.0 1.7 0.00 0.00 0.00 68 1018.7
20260502025522 41 360 0.0 0.0 0.00 0.00 0.00 56 1018.8
20260502025015 42 360 0.0 0.0 0.00 0.00 0.00 57 1018.8
20260502024522 42 360 0.0 0.0 0.00 0.00 0.00 60 1018.8
20260502024014 43 360 0.0 0.0 0.00 0.00 0.00 61 1018.8
20260502023514 43 360 0.0 0.0 0.00 0.00 0.00 58 1018.8
20260502023114 44 360 0.0 0.0 0.00 0.00 0.00 59 1018.7
20260502022515 45 360 0.0 0.0 0.00 0.00 0.00 62 1018.7
20260502022017 45 360 0.0 0.0 0.00 0.00 0.00 57 1018.6
20260502021515 45 360 0.0 0.0 0.00 0.00 0.00 50 1018.6
20260502021013 45 360 0.0 0.0 0.00 0.00 0.00 51 1018.6
20260502020514 46 360 0.0 0.0 0.00 0.00 0.00 54 1018.5
20260502020014 46 360 0.0 0.0 0.00 0.00 0.00 53 1018.5
20260502015512 47 360 0.0 0.0 0.00 0.00 0.00 51 1018.5
20260502015012 48 360 0.0 0.0 0.00 0.00 0.00 46 1018.4
20260502014512 48 360 0.0 0.0 0.00 0.00 0.00 45 1018.4
20260502014014 48 360 0.0 0.0 0.00 0.00 0.00 45 1018.4
20260502013511 49 360 0.0 0.0 0.00 0.00 0.00 44 1018.5
20260502013014 49 360 0.0 0.0 0.00 0.00 0.00 43 1018.6
20260502012512 49 360 0.0 0.0 0.00 0.00 0.00 43 1018.5
20260502012014 49 360 0.0 0.0 0.00 0.00 0.00 42 1018.5
20260502011512 50 360 0.0 0.0 0.00 0.00 0.00 43 1018.5
20260502011011 50 360 0.0 0.9 0.00 0.00 0.00 42 1018.5
20260502010513 50 360 0.0 0.9 0.00 0.00 0.00 42 1018.4
20260502010020 51 360 0.0 0.9 0.00 0.00 0.00 42 1018.4
20260502005510 51 360 0.0 1.7 0.00 0.00 0.00 42 1018.3
20260502005013 51 360 0.0 1.7 0.00 0.00 0.00 42 1018.3
20260502004514 51 360 0.0 1.7 0.00 0.00 0.00 41 1018.3
20260502004024 51 360 0.0 3.5 0.00 0.00 0.00 41 1018.3
20260502003510 51 360 0.9 3.5 0.00 0.00 0.00 41 1018.5
20260502003009 52 360 0.9 2.6 0.00 0.00 0.00 41 1018.4
20260502002511 52 360 0.0 3.5 0.00 0.00 0.00 42 1018.4
20260502002011 52 309 0.0 3.5 0.00 0.00 0.00 40 1018.3
20260502001510 52 66 0.0 2.6 0.00 0.00 0.00 41 1018.3
20260502001012 53 67 0.9 4.3 0.00 0.00 0.00 41 1018.3
20260502000508 53 66 0.9 7.0 0.00 0.00 0.00 39 1018.2
20260502000014 53 337 0.0 7.0 0.00 0.00 0.00 39 1018.4
20260501235508 53 28 0.9 4.3 0.00 0.00 0.00 39 1018.3
20260501235011 52 70 0.9 4.3 0.00 0.00 0.00 39 1018.3
20260501234507 53 68 1.7 4.3 0.00 0.00 0.00 39 1018.3
20260501234007 53 338 0.9 4.3 0.00 0.00 0.00 40 1018.4
20260501233510 53 59 0.9 4.3 0.00 0.00 0.00 41 1018.5
20260501233006 52 310 0.9 3.5 0.00 0.00 0.00 41 1018.4
20260501232506 52 83 0.9 4.3 0.00 0.00 0.00 40 1018.3
20260501232005 53 65 1.7 4.3 0.00 0.00 0.00 43 1018.3
20260501231505 53 360 0.9 4.3 0.00 0.00 0.00 42 1018.4
20260501231005 52 320 1.7 5.2 0.00 0.00 0.00 43 1018.4
20260501230505 52 38 1.7 5.2 0.00 0.00 0.00 42 1018.4
20260501230004 52 69 1.7 6.1 0.00 0.00 0.00 41 1018.3
20260501225504 52 51 0.9 4.3 0.00 0.00 0.00 42 1018.3
20260501225003 52 51 1.7 5.2 0.00 0.00 0.00 42 1018.4
20260501224505 52 80 1.7 5.2 0.00 0.00 0.00 41 1018.4
20260501224004 53 57 1.7 7.0 0.00 0.00 0.00 41 1018.3
20260501223503 53 50 1.7 7.8 0.00 0.00 0.00 43 1018.3
20260501223003 53 311 2.6 7.8 0.00 0.00 0.00 42 1018.4
20260501222503 53 16 0.9 5.2 0.00 0.00 0.00 40 1018.4
20260501222002 53 63 2.6 7.8 0.00 0.00 0.00 41 1018.4
20260501221509 53 46 3.5 7.8 0.00 0.00 0.00 44 1018.3
20260501221004 53 304 0.9 4.3 0.00 0.00 0.00 42 1018.4